OE5XCL Weather Reports


time (UTC)temp
F
wind
direction
speed
knots
gust
knots
rain 1hr
in
rain 24hr
in
rain mn
in
humidity
%
barometer
mb
20260505153043 0 86 0.0 2.6 0.00 0.00 0.00 1002.2
20260505151540 0 86 0.0 2.6 0.00 0.00 0.00 1002.3
20260505130112 0 92 0.9 6.1 0.00 0.00 0.00 1003.7
20260505124600 0 83 1.7 4.3 0.00 0.00 0.00 1003.9
20260505123050 0 11 0.0 6.1 0.00 0.00 0.00 1004.2
20260505121547 0 360 1.7 7.8 0.00 0.00 0.00 1004.4
20260505120040 0 321 4.3 8.7 0.00 0.00 0.00 1004.6
20260505114536 0 309 5.2 8.7 0.00 0.00 0.00 1004.8
20260505113032 0 321 2.6 7.0 0.00 0.00 0.00 1004.8
20260505111534 0 330 1.7 10.4 0.00 0.00 0.00 1005.1
20260505101509 0 297 0.0 6.1 0.00 0.00 0.00 1005.9
20260505100009 0 322 2.6 7.8 0.00 0.00 0.00 1006.1
20260505094601 0 314 0.9 4.3 0.00 0.00 0.00 1006.2
20260505093107 0 302 2.6 7.8 0.00 0.00 0.00 1006.3
20260505091553 0 282 2.6 6.1 0.00 0.00 0.00 1006.5
20260505090047 0 331 0.9 5.2 0.00 0.00 0.00 1006.5
20260505084543 0 57 0.9 3.5 0.00 0.00 0.00 1006.7
20260505083039 0 57 0.0 2.6 0.00 0.00 0.00 1006.7
20260505081543 0 57 0.9 4.3 0.00 0.00 0.00 1006.8
20260505080033 0 340 0.0 1.7 0.00 0.00 0.00 1007.0
20260505074526 0 318 0.0 3.5 0.00 0.00 0.00 1007.1
20260505073025 0 313 0.9 4.3 0.00 0.00 0.00 1007.2
20260505071534 0 311 0.0 2.6 0.00 0.00 0.00 1007.2
20260505070012 0 311 0.0 3.5 0.00 0.00 0.00 1007.2
20260505064519 0 311 0.9 4.3 0.00 0.00 0.00 1007.5
20260505063011 0 256 0.0 3.5 0.00 0.00 0.00 1007.5
20260505061602 0 254 0.9 2.6 0.00 0.00 0.00 1007.7
20260505060055 0 254 0.0 2.6 0.00 0.00 0.00 1007.7
20260505054555 0 254 0.0 0.9 0.00 0.00 0.00 1007.7
20260505053056 0 254 0.0 2.6 0.00 0.00 0.00 1007.9
20260505051544 0 254 0.0 3.5 0.00 0.00 0.00 1007.8
20260505041524 0 255 0.0 0.9 0.00 0.00 0.00 1007.8
20260505040033 0 255 0.0 0.0 0.00 0.00 0.00 1007.8
20260505034515 0 255 0.0 0.0 0.00 0.00 0.00 1007.8
20260505033011 0 255 0.0 0.0 0.00 0.00 0.00 1007.8
20260505031506 0 255 0.0 0.0 0.00 0.00 0.00 1007.9
20260505030008 0 255 0.0 0.9 0.00 0.00 0.00 1007.9
20260505024558 0 255 0.0 0.9 0.00 0.00 0.00 1008.0
20260505023107 0 255 0.0 3.5 0.00 0.00 0.00 1008.1
20260505021600 0 210 0.0 2.6 0.00 0.00 0.00 1008.0
20260505020057 0 210 0.0 2.6 0.00 0.00 0.00 1008.1
20260505014550 0 209 0.0 4.3 0.00 0.00 0.00 1008.1
20260505013045 0 209 0.0 2.6 0.00 0.00 0.00 1008.1
20260505011550 0 209 0.0 2.6 0.00 0.00 0.00 1008.3
20260505010039 0 209 0.0 1.7 0.00 0.00 0.00 1008.3
20260505004534 0 209 0.0 0.0 0.00 0.00 0.00 1008.4
20260505003028 0 209 0.0 0.0 0.00 0.00 0.00 1008.5
20260505001524 0 209 0.0 0.0 0.00 0.00 0.00 1008.5
20260505000019 0 209 0.0 0.9 0.00 0.00 0.00 1008.6
20260504234515 0 209 0.0 0.9 0.00 0.00 0.00 1008.7
20260504233012 0 209 0.0 1.7 0.00 0.00 0.00 1008.7
20260504231505 0 209 0.0 0.9 0.00 0.00 0.00 1008.9
20260504230002 0 209 0.0 0.9 0.00 0.00 0.00 1009.0
20260504224601 0 209 0.0 1.7 0.00 0.00 0.00 1009.1
20260504223056 0 209 0.0 1.7 0.00 0.00 0.00 1009.0
20260504221548 0 209 0.0 2.6 0.00 0.00 0.00 1009.0
20260504220105 0 323 0.0 0.9 0.00 0.00 0.00 1008.9
20260504214551 0 323 0.0 4.3 0.00 0.00 0.00 1008.8
20260504213051 0 17 0.9 6.1 0.00 0.00 0.00 1008.7
20260504211541 0 316 2.6 12.2 0.00 0.00 0.00 1008.9
20260504210037 0 343 5.2 13.9 0.00 0.00 0.00 1009.3
20260504204532 0 321 7.0 16.5 0.00 0.00 0.00 1009.5
20260504203029 0 308 7.8 18.2 0.00 0.00 0.00 1009.5
20260504201524 0 292 7.0 16.5 0.00 0.00 0.00 1009.6
20260504200034 0 291 4.3 10.4 0.00 0.00 0.00 1009.4
20260504194515 0 323 0.0 0.0 0.00 0.00 0.00 1008.7
20260504193011 0 323 0.0 0.9 0.00 0.00 0.00 1008.5
20260504191517 0 323 0.0 4.3 0.00 0.00 0.00 1008.4
20260504190003 0 327 0.9 3.5 0.00 0.00 0.00 1008.3
20260504184614 0 82 0.0 0.9 0.00 0.00 0.00 1008.3
20260504183053 0 87 0.0 0.0 0.00 0.00 0.00 1008.1
20260504181549 0 87 0.0 0.0 0.00 0.00 0.00 1008.0
20260504180044 0 87 0.0 0.9 0.00 0.00 0.00 1008.0
20260504174539 0 87 0.0 2.6 0.00 0.00 0.00 1007.9
20260504173036 0 94 1.7 6.1 0.00 0.00 0.00 1007.8
20260504171530 0 90 0.9 6.1 0.00 0.00 0.00 1007.9